• In Spain
  • List of Countries
  • For 7 days
  • Water Temperature
  • Satellite Maps
  • Weather Map
  • Weather Widgets
  • user-avatar
    Login

    Hourly Weather Betki

    Today, 23 June, Saturday

    Time Temperature Precipitation Wind Pressure Humidity
    00:00 +13°C° 0 mm 3 mps 751 mmHg 85%
    01:00 +13°C° 0 mm 3 mps 751 mmHg 86%
    02:00 +12°C° 0 mm 3 mps 752 mmHg 87%
    03:00 +13°C° 0 mm 2 mps 751 mmHg 86%
    04:00 +13°C° 0 mm 3 mps 752 mmHg 83%
    05:00 +16°C° 0 mm 3 mps 752 mmHg 80%
    06:00 +17°C° 0 mm 3 mps 752 mmHg 76%
    07:00 +19°C° 0 mm 3 mps 752 mmHg 71%
    08:00 +21°C° 0 mm 3 mps 752 mmHg 66%
    09:00 +22°C° 0 mm 4 mps 752 mmHg 61%
    10:00 +23°C° 0 mm 4 mps 752 mmHg 59%
    11:00 +25°C° 0 mm 4 mps 752 mmHg 57%
    12:00 +26°C° 0 mm 4 mps 752 mmHg 54%
    13:00 +27°C° 0 mm 4 mps 752 mmHg 55%
    14:00 +27°C° 0 mm 4 mps 752 mmHg 55%
    15:00 +27°C° 0 mm 4 mps 752 mmHg 56%
    16:00 +27°C° 0 mm 3 mps 752 mmHg 61%
    17:00 +27°C° 0 mm 3 mps 752 mmHg 66%
    18:00 +26°C° 0 mm 2 mps 752 mmHg 71%
    19:00 +25°C° 0 mm 2 mps 752 mmHg 75%
    20:00 +23°C° 0 mm 2 mps 752 mmHg 79%
    21:00 +20°C° 0 mm 2 mps 752 mmHg 83%
    22:00 +21°C° 0 mm 1 mps 752 mmHg 85%
    23:00 +21°C° 0 mm 1 mps 752 mmHg 86%

    Tomorrow, 24 June, Sunday

    Time Temperature Precipitation Wind Pressure Humidity
    00:00 +20°C° 0 mm 1 mps 753 mmHg 88%
    01:00 +20°C° 0 mm 1 mps 753 mmHg 88%
    02:00 +20°C° 0 mm 1 mps 753 mmHg 89%
    03:00 +19°C° 0 mm 1 mps 753 mmHg 90%
    04:00 +21°C° 0 mm 1 mps 753 mmHg 87%
    05:00 +22°C° 0 mm 1 mps 753 mmHg 85%
    06:00 +23°C° 0 mm 2 mps 754 mmHg 82%
    07:00 +25°C° 0.1 mm 2 mps 754 mmHg 78%
    08:00 +26°C° 0.1 mm 2 mps 754 mmHg 73%
    09:00 +28°C° 0.1 mm 2 mps 754 mmHg 69%
    10:00 +28°C° 0.5 mm 2 mps 754 mmHg 67%
    11:00 +29°C° 0.5 mm 2 mps 754 mmHg 64%
    12:00 +30°C° 0.5 mm 2 mps 754 mmHg 62%
    13:00 +30°C° 0.7 mm 2 mps 754 mmHg 62%
    14:00 +30°C° 0.7 mm 2 mps 754 mmHg 62%
    15:00 +30°C° 0.7 mm 2 mps 754 mmHg 62%
    16:00 +30°C° 0.8 mm 1 mps 754 mmHg 67%
    17:00 +29°C° 0.8 mm 1 mps 754 mmHg 71%
    18:00 +29°C° 0.8 mm 1 mps 754 mmHg 75%
    19:00 +27°C° 0.2 mm 1 mps 754 mmHg 78%
    20:00 +26°C° 0.2 mm 1 mps 754 mmHg 81%
    21:00 +24°C° 0.2 mm 1 mps 754 mmHg 84%
    22:00 +24°C° 0.1 mm 1 mps 754 mmHg 86%
    23:00 +23°C° 0.1 mm 1 mps 755 mmHg 87%

    Day after tomorrow, 25 June, Monday

    Time Temperature Precipitation Wind Pressure Humidity
    00:00 +23°C° 0.1 mm 1 mps 755 mmHg 88%
    01:00 +22°C° 0 mm 1 mps 755 mmHg 89%
    02:00 +22°C° 0 mm 1 mps 755 mmHg 89%
    03:00 +22°C° 0 mm 1 mps 755 mmHg 90%
    04:00 +23°C° 0 mm 1 mps 755 mmHg 88%
    05:00 +24°C° 0 mm 1 mps 755 mmHg 86%
    06:00 +25°C° 0 mm 1 mps 756 mmHg 84%
    07:00 +26°C° 0.2 mm 1 mps 756 mmHg 80%
    08:00 +28°C° 0.2 mm 2 mps 756 mmHg 76%
    09:00 +29°C° 0.2 mm 2 mps 756 mmHg 71%
    10:00 +29°C° 0.2 mm 2 mps 755 mmHg 69%
    11:00 +30°C° 0.2 mm 2 mps 755 mmHg 66%
    12:00 +31°C° 0.2 mm 2 mps 755 mmHg 63%
    13:00 +31°C° 0.1 mm 3 mps 755 mmHg 63%
    14:00 +31°C° 0.1 mm 3 mps 755 mmHg 62%
    15:00 +31°C° 0.1 mm 3 mps 755 mmHg 62%
    16:00 +30°C° 0 mm 3 mps 755 mmHg 66%
    17:00 +30°C° 0 mm 3 mps 755 mmHg 70%
    18:00 +29°C° 0 mm 2 mps 755 mmHg 74%
    19:00 +27°C° 0 mm 2 mps 755 mmHg 78%
    20:00 +26°C° 0 mm 2 mps 755 mmHg 81%
    21:00 +24°C° 0 mm 2 mps 756 mmHg 84%
    22:00 +24°C° 0 mm 2 mps 756 mmHg 86%
    23:00 +23°C° 0 mm 2 mps 756 mmHg 87%

    26 June, Tuesday

    Time Temperature Precipitation Wind Pressure Humidity
    00:00 +23°C° 0 mm 2 mps 756 mmHg 88%
    01:00 +21°C° 0 mm 2 mps 756 mmHg 88%
    02:00 +21°C° 0 mm 2 mps 756 mmHg 89%
    03:00 +21°C° 0 mm 2 mps 756 mmHg 89%
    04:00 +23°C° 0 mm 2 mps 756 mmHg 86%
    05:00 +24°C° 0 mm 2 mps 756 mmHg 83%
    06:00 +25°C° 0 mm 2 mps 756 mmHg 81%
    07:00 +26°C° 0.3 mm 2 mps 756 mmHg 77%
    08:00 +28°C° 0.3 mm 2 mps 756 mmHg 73%
    09:00 +29°C° 0.3 mm 3 mps 756 mmHg 70%
    10:00 +30°C° 0.8 mm 2 mps 756 mmHg 67%
    11:00 +30°C° 0.8 mm 2 mps 755 mmHg 64%
    12:00 +31°C° 0.8 mm 2 mps 755 mmHg 61%
    13:00 +31°C° 0.4 mm 2 mps 755 mmHg 61%
    14:00 +31°C° 0.4 mm 3 mps 755 mmHg 61%
    15:00 +31°C° 0.4 mm 3 mps 755 mmHg 61%
    16:00 +30°C° 0.4 mm 3 mps 755 mmHg 66%
    17:00 +29°C° 0.4 mm 2 mps 755 mmHg 70%
    18:00 +29°C° 0.4 mm 2 mps 755 mmHg 74%
    19:00 +27°C° 0 mm 2 mps 755 mmHg 77%
    20:00 +26°C° 0 mm 3 mps 755 mmHg 80%
    21:00 +24°C° 0 mm 3 mps 755 mmHg 83%
    22:00 +24°C° 0.1 mm 3 mps 755 mmHg 85%
    23:00 +22°C° 0.1 mm 3 mps 755 mmHg 87%

    27 June, Wednesday

    Time Temperature Precipitation Wind Pressure Humidity
    00:00 +22°C° 0.1 mm 3 mps 755 mmHg 89%
    01:00 +21°C° 0.6 mm 3 mps 755 mmHg 90%
    02:00 +21°C° 0.6 mm 2 mps 755 mmHg 91%
    03:00 +21°C° 0.6 mm 2 mps 755 mmHg 92%
    04:00 +23°C° 0 mm 2 mps 755 mmHg 90%
    05:00 +23°C° 0 mm 2 mps 755 mmHg 89%
    06:00 +24°C° 0 mm 3 mps 755 mmHg 87%
    07:00 +25°C° 0.4 mm 3 mps 755 mmHg 83%
    08:00 +27°C° 0.4 mm 4 mps 754 mmHg 79%
    09:00 +28°C° 0.4 mm 4 mps 754 mmHg 75%
    10:00 +29°C° 0.2 mm 4 mps 754 mmHg 71%
    11:00 +29°C° 0.2 mm 4 mps 754 mmHg 68%
    12:00 +30°C° 0.2 mm 4 mps 754 mmHg 65%
    13:00 +30°C° 0.1 mm 4 mps 754 mmHg 64%
    14:00 +30°C° 0.1 mm 4 mps 754 mmHg 64%
    15:00 +30°C° 0.1 mm 5 mps 754 mmHg 64%
    16:00 +30°C° 0.1 mm 4 mps 754 mmHg 67%
    17:00 +29°C° 0.1 mm 4 mps 753 mmHg 71%
    18:00 +28°C° 0.1 mm 3 mps 753 mmHg 74%
    19:00 +27°C° 0 mm 3 mps 753 mmHg 78%
    20:00 +25°C° 0 mm 3 mps 754 mmHg 82%
    21:00 +24°C° 0 mm 3 mps 754 mmHg 86%
    22:00 +22°C° 0 mm 3 mps 754 mmHg 87%
    23:00 +21°C° 0 mm 3 mps 754 mmHg 88%

    28 June, Thursday

    Time Temperature Precipitation Wind Pressure Humidity
    00:00 +21°C° 0 mm 3 mps 754 mmHg 89%
    01:00 +20°C° 0 mm 3 mps 754 mmHg 88%
    02:00 +20°C° 0 mm 4 mps 754 mmHg 88%
    03:00 +19°C° 0 mm 4 mps 754 mmHg 87%
    04:00 +20°C° 0 mm 4 mps 755 mmHg 84%
    05:00 +20°C° 0 mm 4 mps 755 mmHg 81%
    06:00 +21°C° 0 mm 4 mps 755 mmHg 77%
    07:00 +22°C° 0 mm 4 mps 755 mmHg 73%
    08:00 +23°C° 0 mm 5 mps 755 mmHg 69%
    09:00 +26°C° 0 mm 5 mps 755 mmHg 65%
    10:00 +26°C° 0 mm 5 mps 755 mmHg 61%
    11:00 +27°C° 0 mm 5 mps 755 mmHg 57%
    12:00 +28°C° 0 mm 6 mps 755 mmHg 54%
    13:00 +28°C° 0 mm 5 mps 755 mmHg 54%
    14:00 +28°C° 0 mm 5 mps 755 mmHg 54%
    15:00 +28°C° 0 mm 5 mps 755 mmHg 54%
    16:00 +27°C° 0 mm 5 mps 755 mmHg 58%
    17:00 +26°C° 0 mm 4 mps 755 mmHg 63%
    18:00 +26°C° 0 mm 4 mps 755 mmHg 67%
    19:00 +23°C° 0 mm 4 mps 755 mmHg 69%
    20:00 +21°C° 0 mm 4 mps 755 mmHg 70%
    21:00 +20°C° 0 mm 4 mps 755 mmHg 72%
    22:00 +19°C° 0 mm 4 mps 755 mmHg 73%
    23:00 +18°C° 0 mm 4 mps 755 mmHg 74%
    Show more